Vorticity
14 13 13 12 11 10 10 12 15 17 19 20 18 16 13 10 8 6 4 4 10 19 29 38 38 35 30 26 24 25 25 22 18 14 12 12 8 7 8 12 17 20 21 22 24 28 32 35 35 35 33 33 34 35 36 37 37 36 34 32 29 26 24 22 21 21 20 19 18
13 13 13 12 10 10 10 12 15 18 19 20 18 15 12 9 7 5 4 5 10 20 30 38 38 35 30 25 24 24 24 20 16 14 12 11 6 2 2 7 13 18 21 21 22 24 27 31 33 32 31 30 31 31 32 33 32 31 30 28 26 24 23 22 21 21 20 19 19
13 12 12 12 10 10 10 12 15 18 19 19 17 14 11 9 7 5 5 5 10 20 30 38 38 35 30 25 24 24 23 19 14 13 12 11 1 -4 -4 2 9 14 19 21 21 22 25 28 30 31 31 30 29 29 29 30 29 28 26 25 24 23 22 21 21 21 20 20 19
13 13 13 12 11 10 10 12 15 18 19 18 16 13 11 8 7 5 5 5 10 20 30 38 38 35 31 26 23 23 22 18 13 12 11 10 -0 -6 -6 2 6 10 14 19 21 22 23 25 28 30 31 30 29 29 28 28 27 25 23 23 23 22 22 22 22 21 20 19 18
13 13 13 11 10 9 10 12 15 18 19 18 15 13 10 8 7 5 5 5 10 19 29 37 38 36 31 26 23 22 21 18 12 10 10 10 2 -2 -0 8 8 7 8 14 17 19 21 23 25 27 29 29 29 28 27 26 25 25 24 24 23 23 23 22 22 21 20 20 19
13 13 13 12 10 9 10 12 16 18 18 17 15 13 10 8 6 5 5 6 10 18 28 37 39 36 32 27 24 22 21 19 12 9 8 8 4 3 7 15 12 7 4 8 12 15 17 19 20 22 24 25 26 26 26 26 26 27 27 26 25 24 23 22 22 21 20 20 19
12 13 12 12 10 9 10 12 16 18 18 17 15 13 10 8 6 5 5 5 9 17 27 36 39 37 33 27 24 23 22 20 14 9 7 6 5 7 10 16 14 8 3 2 6 8 11 14 15 17 19 21 22 23 24 25 25 25 26 25 25 24 23 22 22 22 21 20 19
13 13 13 11 9 9 9 12 15 17 18 18 15 12 10 7 6 5 5 5 9 16 25 34 39 38 34 28 25 23 21 20 15 11 7 4 5 8 11 15 14 10 4 0 1 3 5 8 10 12 14 17 19 20 21 22 23 23 24 24 25 25 24 23 23 22 21 21 20
13 13 12 11 9 9 9 12 15 17 18 18 15 12 9 7 6 5 5 5 8 14 22 33 39 39 36 30 26 23 21 20 17 13 9 6 5 7 10 13 13 10 6 1 -0 0 1 2 4 7 10 13 16 17 18 18 19 20 21 23 24 25 25 24 24 23 22 21 20
13 13 12 11 10 9 9 11 15 17 18 18 15 12 10 7 6 6 5 5 7 12 20 30 37 39 38 33 27 23 21 20 18 15 12 8 6 6 8 10 11 10 7 3 1 0 0 0 0 2 5 8 11 14 15 14 13 14 15 18 20 22 23 24 24 24 23 22 20
13 13 12 11 9 8 9 11 14 17 18 18 15 12 10 8 7 6 5 5 6 11 17 26 34 39 40 36 29 25 21 19 18 16 13 10 8 6 7 8 10 10 8 5 3 1 1 1 -0 -1 0 3 6 9 12 12 9 9 9 12 14 17 19 21 21 22 22 22 21
12 13 12 11 9 8 9 11 14 16 18 17 15 13 10 8 7 6 5 5 6 9 15 23 31 38 41 39 32 27 22 19 18 16 14 12 9 7 6 7 8 9 8 7 4 3 2 2 1 0 -0 -0 2 5 8 10 8 7 7 9 11 13 15 18 19 20 20 20 21
12 12 12 12 10 9 9 11 14 16 17 17 15 13 11 9 7 6 6 5 6 8 12 19 28 36 40 41 35 30 24 21 18 16 14 12 10 8 7 7 7 8 8 8 6 4 2 1 2 2 2 1 2 3 5 7 8 9 9 10 11 12 14 16 17 18 18 18 19
12 12 12 12 10 9 9 10 13 15 17 17 15 13 11 9 8 7 6 6 6 7 10 15 24 32 39 41 38 33 28 23 19 17 14 12 11 9 8 7 7 7 7 8 8 6 4 2 1 2 2 3 3 3 4 5 7 9 11 12 13 14 15 16 16 17 17 16 17
12 13 12 11 10 9 9 10 13 15 16 17 15 14 12 9 8 7 7 6 6 6 8 12 20 28 36 41 40 37 32 26 22 18 16 13 11 10 9 8 7 6 6 6 7 8 7 5 2 1 1 2 3 3 3 4 5 8 10 13 13 14 15 16 16 16 16 15 15
12 12 12 12 10 9 8 10 12 14 16 17 15 14 12 10 8 8 7 7 6 6 7 10 16 24 32 39 41 40 36 31 26 21 18 15 12 10 9 8 7 7 6 5 5 7 8 9 6 3 2 1 2 2 3 3 4 6 8 11 12 13 14 15 15 16 15 14 14
12 13 12 11 10 9 8 9 12 14 16 16 16 14 12 10 9 8 7 7 6 6 7 8 13 19 27 35 39 41 39 35 30 25 21 17 14 12 10 8 7 6 6 5 4 5 6 9 9 7 4 2 2 2 2 2 3 5 6 9 10 11 12 13 14 15 15 14 13
13 13 12 11 10 9 8 9 11 13 16 17 16 14 12 10 9 8 7 7 7 6 6 7 10 15 22 30 36 39 40 39 34 30 25 21 17 14 11 9 7 6 5 5 5 5 5 6 8 8 7 5 4 3 2 2 3 4 5 7 9 10 11 12 13 14 14 14 14
12 12 12 12 10 9 8 8 10 13 15 17 16 15 13 11 9 8 7 7 7 7 7 6 8 12 18 25 31 36 40 40 37 34 30 25 22 18 15 12 10 7 6 4 4 4 5 6 8 9 9 8 6 5 4 3 4 4 5 6 8 10 11 12 12 12 13 14 14
12 12 12 12 10 9 8 8 10 12 14 17 17 16 14 11 10 8 8 7 7 7 7 6 7 10 14 20 27 32 37 39 39 37 33 30 26 23 19 17 14 11 8 5 3 3 4 6 8 9 10 10 9 8 6 5 5 5 5 5 6 8 10 12 13 13 12 12 14
13 13 12 12 10 9 8 8 9 11 14 16 17 16 14 12 10 9 8 7 7 7 7 7 7 8 11 15 22 28 33 36 38 38 36 33 30 26 23 21 20 18 15 10 6 4 4 5 7 9 11 12 11 10 9 8 7 6 5 5 6 6 8 10 12 13 13 12 12
12 12 12 12 10 9 8 8 9 10 13 15 16 16 15 13 11 10 8 7 7 7 7 7 7 7 9 12 18 23 29 33 35 37 36 35 32 29 26 24 25 25 23 19 15 11 9 7 7 8 10 12 12 12 11 10 8 7 6 6 6 6 6 8 10 13 14 14 13
12 12 12 12 11 9 8 8 8 10 12 14 16 16 16 14 12 11 9 8 8 7 7 7 7 7 8 9 14 19 24 30 32 34 35 35 33 30 28 26 26 27 26 25 25 23 19 15 12 10 9 10 12 12 12 11 10 8 8 7 7 6 6 6 8 11 13 15 15
12 12 12 12 11 10 9 8 8 9 11 14 15 16 15 14 13 11 10 9 8 8 7 7 7 7 7 7 10 15 20 26 30 32 33 33 32 31 29 27 27 26 24 22 28 30 28 22 17 13 11 9 10 11 11 11 10 10 9 8 8 7 7 6 7 9 12 14 16
11 11 11 12 11 10 9 8 8 9 11 13 14 15 15 15 13 12 11 10 9 8 8 7 7 7 7 7 8 11 16 21 26 29 31 32 32 31 29 27 27 25 22 17 22 28 30 26 19 15 12 11 10 10 10 10 10 10 10 9 9 8 8 7 7 8 10 12 14
11 11 11 12 11 11 10 9 9 9 10 12 13 15 15 15 14 13 12 11 10 9 8 8 7 7 7 6 7 9 12 17 22 26 29 31 31 31 30 29 28 27 24 19 16 21 28 30 23 17 14 12 12 11 11 11 10 10 10 10 10 9 9 8 8 8 9 10 12
11 11 11 11 11 11 11 9 8 8 9 11 13 14 15 14 14 13 12 12 11 10 9 8 8 7 7 6 7 8 9 12 17 21 26 29 31 31 31 30 29 29 28 25 16 18 25 36 30 23 17 15 14 14 14 13 12 11 10 10 10 10 10 9 9 9 9 10 10
12 11 10 11 12 12 11 9 8 9 9 10 12 13 14 14 14 13 13 12 11 11 10 10 9 7 7 6 7 7 8 9 13 17 21 25 28 30 31 31 30 30 30 29 22 20 25 38 36 30 23 19 18 17 17 17 15 14 12 11 11 11 11 11 11 11 11 11 11
11 10 10 11 12 11 10 10 9 9 9 10 11 12 13 14 14 13 12 12 12 12 11 11 9 8 7 7 7 7 8 8 10 13 16 21 25 27 29 30 30 30 30 31 27 25 26 33 35 31 26 23 21 20 20 20 20 18 16 14 13 12 12 12 12 13 13 13 13
12 11 11 11 11 11 11 11 9 9 8 9 10 11 13 14 14 13 13 12 12 12 12 10 10 9 9 8 7 7 7 8 9 11 13 16 20 24 26 28 28 28 29 31 31 28 24 24 26 26 25 25 24 23 23 23 23 22 21 18 16 15 14 13 13 14 14 14 15
12 11 11 11 11 12 11 10 9 9 8 8 9 10 12 13 13 13 13 12 12 11 11 11 11 11 10 8 8 7 8 8 8 10 11 14 16 19 23 25 26 26 27 28 30 30 28 25 23 24 26 26 26 25 24 24 24 24 24 22 20 18 16 14 14 14 14 15 15
12 11 11 11 11 12 11 11 10 9 8 8 9 10 11 12 13 13 12 12 11 11 11 12 12 11 10 9 9 8 8 8 8 9 11 12 14 16 19 22 23 24 24 25 27 29 29 28 27 26 27 27 26 26 24 24 24 25 25 24 23 21 19 17 16 15 14 15 16
13 11 11 11 11 11 11 11 10 9 9 8 9 9 10 11 11 12 12 12 11 11 11 11 12 11 11 10 9 9 8 8 8 9 10 12 13 15 17 19 21 22 22 23 24 25 27 28 28 27 26 25 25 24 23 23 23 23 24 24 24 23 22 21 19 18 17 16 16
13 12 11 11 11 11 11 11 11 10 9 9 9 9 9 9 10 11 12 12 12 11 11 11 12 12 11 11 10 9 8 8 8 8 9 10 12 14 15 18 19 21 21 22 22 23 24 25 27 27 25 24 23 23 23 22 22 22 22 23 23 23 23 23 22 21 20 19 19
13 12 11 11 11 11 12 12 11 10 10 9 9 8 8 9 9 10 11 11 11 11 11 11 11 11 11 11 11 10 9 8 8 8 8 9 10 12 14 16 18 19 20 21 21 22 23 24 26 25 24 22 22 22 22 22 22 21 21 21 22 22 23 23 23 23 23 22 22
14 12 11 10 11 11 12 12 12 11 10 10 9 8 8 8 9 9 10 10 10 11 11 11 11 11 11 12 12 11 10 9 8 8 8 8 9 11 12 14 16 18 19 20 21 22 22 23 24 24 22 21 21 21 22 22 21 21 20 20 21 21 22 22 23 23 23 23 23
14 13 11 10 10 11 12 12 12 11 11 10 9 9 8 8 8 8 9 9 10 10 10 11 11 11 11 11 11 11 11 10 9 9 8 8 9 10 11 12 14 17 18 19 20 21 22 23 24 23 22 20 20 20 21 21 21 21 20 20 20 21 21 22 22 23 23 23 23
14 13 12 10 10 10 11 12 12 12 12 11 10 9 8 7 7 8 8 9 9 10 10 10 11 11 11 11 11 11 11 11 10 10 9 9 9 9 10 11 13 15 17 18 19 21 22 24 24 24 23 21 20 20 20 20 20 20 20 20 20 20 21 22 22 23 24 24 23
14 13 12 11 10 10 11 12 13 13 12 11 10 9 8 8 8 8 8 8 9 9 9 10 10 10 10 11 11 11 11 11 11 11 10 9 9 9 10 11 12 13 15 17 18 20 22 23 24 25 24 23 21 20 20 19 19 20 20 19 19 20 21 22 23 24 24 25 24
14 13 12 11 10 10 10 11 12 12 12 11 10 10 9 8 8 8 8 8 8 8 9 9 9 10 10 10 10 11 11 11 11 11 11 10 9 9 9 10 11 12 13 16 17 19 21 23 24 25 25 25 23 22 21 20 20 19 19 19 19 20 20 22 23 24 25 25 24
14 13 13 12 11 10 10 10 11 11 12 12 11 10 9 8 8 8 8 8 8 8 8 9 9 9 9 10 10 10 10 10 11 11 11 11 10 10 10 9 10 10 12 13 16 18 20 22 23 25 25 26 25 24 23 22 21 20 20 20 20 21 21 22 23 25 25 26 25
Height
5538 5533 5527 5521 5515 5509 5503 5497 5491 5485 5479 5474 5468 5462 5456 5450 5444 5438 5431 5424 5417 5409 5402 5394 5388 5382 5377 5373 5369 5365 5361 5357 5354 5351 5348 5345 5341 5337 5333 5329 5325 5320 5315 5310 5306 5301 5297 5293 5290 5287 5286 5285 5284 5285 5285 5286 5288 5290 5292 5294 5297 5300 5303 5305 5308 5311 5315 5318 5321
5537 5530 5525 5519 5513 5507 5501 5495 5489 5483 5477 5471 5465 5460 5454 5449 5442 5436 5429 5422 5415 5407 5400 5393 5386 5381 5376 5372 5368 5364 5360 5357 5354 5351 5348 5345 5342 5338 5334 5330 5326 5321 5317 5313 5309 5304 5300 5296 5293 5291 5289 5288 5287 5287 5288 5289 5290 5292 5294 5296 5298 5300 5303 5306 5309 5311 5315 5318 5321
5535 5529 5523 5517 5510 5505 5499 5493 5487 5481 5475 5469 5464 5458 5453 5447 5441 5435 5428 5421 5413 5406 5399 5392 5386 5380 5376 5371 5367 5364 5360 5357 5354 5351 5349 5346 5343 5339 5335 5331 5327 5323 5319 5315 5311 5307 5303 5300 5297 5295 5294 5292 5291 5291 5291 5292 5293 5295 5296 5298 5300 5302 5305 5307 5310 5312 5315 5317 5320
5533 5527 5521 5515 5509 5503 5498 5492 5486 5480 5474 5468 5462 5457 5451 5446 5440 5433 5426 5419 5412 5405 5398 5391 5385 5380 5375 5371 5367 5364 5360 5357 5355 5352 5350 5347 5344 5340 5337 5333 5329 5325 5321 5317 5314 5310 5307 5304 5301 5299 5298 5297 5296 5296 5296 5296 5297 5298 5300 5301 5303 5304 5306 5308 5310 5312 5314 5315 5317
5531 5525 5520 5514 5508 5502 5496 5490 5485 5479 5472 5467 5461 5456 5450 5445 5439 5432 5425 5418 5411 5405 5397 5391 5385 5380 5375 5371 5367 5364 5361 5358 5355 5353 5350 5348 5345 5341 5338 5335 5330 5326 5323 5319 5316 5313 5310 5307 5305 5303 5302 5301 5300 5300 5300 5300 5301 5301 5302 5304 5305 5306 5307 5309 5310 5311 5313 5314 5316
5530 5525 5518 5512 5507 5501 5495 5489 5483 5478 5472 5466 5460 5455 5449 5443 5437 5431 5425 5418 5411 5404 5397 5390 5385 5380 5375 5371 5367 5364 5361 5358 5355 5353 5351 5348 5345 5342 5339 5336 5332 5328 5325 5321 5319 5316 5313 5310 5309 5307 5305 5304 5304 5303 5303 5303 5304 5304 5305 5305 5306 5307 5308 5309 5310 5311 5312 5314 5316
5530 5524 5518 5512 5506 5500 5494 5488 5482 5476 5471 5465 5460 5454 5448 5443 5437 5431 5425 5418 5411 5404 5397 5391 5385 5380 5375 5371 5367 5364 5361 5358 5356 5354 5351 5349 5346 5343 5340 5337 5334 5330 5326 5324 5321 5319 5316 5314 5312 5310 5309 5308 5307 5307 5306 5306 5306 5306 5307 5307 5308 5308 5309 5310 5310 5311 5313 5314 5315
5528 5522 5516 5511 5505 5499 5494 5488 5482 5476 5470 5464 5459 5453 5448 5442 5437 5431 5425 5418 5411 5405 5398 5391 5385 5380 5375 5371 5367 5364 5361 5359 5356 5354 5352 5349 5347 5344 5341 5338 5335 5332 5329 5326 5324 5321 5319 5317 5315 5314 5313 5312 5311 5310 5309 5309 5309 5309 5309 5309 5309 5309 5310 5310 5311 5311 5312 5314 5315
5527 5521 5515 5510 5504 5499 5493 5487 5481 5475 5470 5464 5458 5453 5447 5442 5436 5430 5425 5418 5412 5405 5398 5391 5385 5380 5375 5371 5367 5364 5361 5358 5356 5354 5352 5350 5347 5345 5342 5339 5336 5333 5330 5328 5326 5324 5322 5320 5318 5317 5316 5315 5314 5313 5312 5311 5311 5310 5310 5310 5310 5310 5310 5310 5311 5311 5312 5313 5314
5526 5521 5515 5510 5504 5498 5493 5487 5481 5475 5469 5464 5458 5452 5447 5441 5436 5430 5425 5419 5412 5405 5398 5392 5386 5380 5375 5371 5367 5364 5361 5358 5356 5354 5352 5350 5348 5345 5343 5340 5337 5335 5332 5330 5328 5326 5325 5323 5321 5320 5318 5317 5316 5315 5314 5313 5313 5312 5312 5312 5311 5311 5311 5311 5311 5311 5312 5313 5314
5526 5520 5515 5509 5504 5498 5492 5486 5480 5475 5469 5464 5458 5453 5447 5442 5436 5430 5425 5419 5412 5406 5399 5393 5387 5381 5376 5371 5368 5364 5361 5358 5356 5354 5352 5350 5348 5346 5344 5341 5339 5336 5334 5332 5330 5328 5327 5325 5324 5322 5321 5320 5318 5317 5316 5315 5315 5314 5314 5313 5313 5312 5312 5312 5312 5312 5312 5313 5314
5525 5520 5514 5509 5503 5498 5492 5486 5480 5475 5469 5464 5458 5453 5448 5442 5436 5431 5425 5419 5413 5407 5400 5394 5388 5382 5376 5372 5368 5364 5361 5358 5356 5354 5352 5350 5348 5347 5345 5342 5340 5338 5336 5334 5332 5330 5328 5327 5326 5325 5323 5322 5320 5319 5318 5317 5316 5315 5315 5314 5313 5313 5312 5312 5312 5313 5313 5314 5314
5525 5519 5514 5508 5503 5498 5492 5486 5480 5475 5469 5464 5459 5453 5448 5443 5437 5431 5425 5420 5414 5407 5401 5395 5388 5382 5377 5372 5368 5365 5361 5358 5356 5354 5351 5350 5348 5347 5345 5343 5341 5339 5337 5335 5333 5331 5330 5329 5327 5326 5325 5323 5322 5321 5320 5318 5317 5317 5316 5315 5314 5313 5313 5313 5313 5313 5314 5314 5314
5524 5518 5513 5508 5503 5497 5492 5486 5480 5475 5469 5464 5459 5453 5448 5443 5437 5432 5426 5420 5414 5408 5402 5395 5389 5383 5378 5373 5369 5365 5362 5359 5356 5354 5351 5350 5348 5347 5345 5344 5342 5340 5338 5336 5335 5333 5331 5330 5328 5327 5326 5325 5323 5322 5321 5320 5319 5318 5317 5316 5315 5314 5314 5313 5313 5313 5313 5314 5314
5523 5518 5512 5507 5502 5497 5491 5486 5480 5475 5469 5464 5459 5453 5448 5443 5438 5432 5427 5421 5415 5409 5403 5397 5390 5385 5379 5374 5370 5365 5362 5359 5356 5354 5352 5350 5348 5347 5345 5344 5342 5340 5338 5337 5335 5334 5332 5330 5329 5328 5327 5325 5324 5323 5321 5320 5319 5318 5317 5316 5316 5315 5314 5314 5313 5313 5313 5313 5313
5522 5517 5512 5507 5502 5496 5491 5486 5480 5475 5469 5464 5458 5453 5448 5443 5438 5433 5427 5422 5416 5410 5404 5398 5392 5386 5380 5375 5371 5366 5363 5360 5357 5354 5352 5350 5348 5346 5345 5343 5342 5340 5339 5337 5335 5334 5333 5331 5330 5328 5327 5326 5325 5323 5322 5321 5320 5319 5318 5317 5316 5315 5315 5314 5314 5313 5313 5313 5313
5522 5516 5511 5506 5501 5496 5491 5486 5480 5475 5469 5464 5458 5453 5448 5443 5438 5433 5428 5422 5417 5411 5405 5400 5394 5388 5382 5377 5372 5368 5364 5360 5357 5355 5352 5350 5348 5346 5344 5343 5341 5340 5339 5337 5336 5335 5333 5332 5330 5329 5327 5326 5325 5324 5322 5321 5320 5319 5318 5317 5316 5315 5315 5314 5314 5313 5313 5312 5312
5521 5516 5511 5506 5501 5496 5491 5486 5480 5475 5469 5464 5458 5453 5448 5443 5438 5433 5428 5423 5418 5412 5407 5401 5395 5390 5384 5378 5373 5369 5365 5361 5358 5355 5352 5350 5348 5346 5344 5342 5341 5339 5338 5337 5335 5334 5333 5332 5330 5329 5328 5326 5325 5324 5323 5321 5320 5319 5318 5317 5316 5315 5315 5314 5313 5313 5312 5312 5312
5521 5515 5511 5506 5501 5496 5491 5486 5480 5475 5470 5464 5459 5453 5448 5443 5438 5433 5428 5423 5418 5413 5408 5403 5397 5391 5385 5380 5375 5370 5366 5362 5358 5355 5352 5350 5348 5345 5344 5342 5340 5339 5337 5336 5335 5334 5333 5332 5330 5330 5328 5327 5325 5324 5323 5321 5320 5319 5318 5317 5316 5315 5315 5314 5313 5312 5312 5311 5311
5520 5515 5510 5506 5501 5496 5491 5486 5481 5475 5470 5464 5459 5453 5448 5443 5438 5433 5429 5424 5419 5414 5409 5404 5398 5393 5387 5382 5376 5371 5367 5363 5359 5356 5353 5350 5348 5345 5343 5342 5340 5338 5337 5335 5334 5333 5332 5331 5330 5329 5328 5327 5325 5324 5323 5321 5320 5319 5318 5317 5316 5315 5314 5313 5313 5312 5311 5311 5310
5520 5515 5510 5506 5501 5496 5491 5486 5481 5475 5470 5465 5459 5454 5449 5444 5439 5434 5429 5425 5420 5415 5410 5405 5400 5395 5389 5384 5378 5373 5368 5364 5360 5357 5353 5350 5348 5345 5343 5341 5340 5338 5337 5335 5334 5332 5331 5330 5329 5328 5327 5326 5325 5324 5323 5321 5320 5319 5318 5316 5315 5315 5314 5313 5312 5311 5310 5310 5310
5520 5515 5510 5505 5501 5496 5491 5486 5481 5475 5470 5465 5460 5454 5449 5445 5440 5435 5430 5425 5420 5415 5411 5406 5401 5396 5391 5385 5380 5375 5370 5365 5361 5357 5354 5351 5348 5345 5343 5341 5340 5338 5336 5335 5334 5332 5330 5329 5328 5327 5326 5325 5324 5323 5322 5321 5320 5319 5317 5316 5315 5314 5313 5312 5311 5310 5310 5309 5309
5519 5515 5510 5505 5501 5496 5491 5486 5481 5475 5470 5465 5460 5455 5450 5445 5440 5436 5431 5426 5421 5416 5412 5407 5402 5397 5392 5387 5382 5377 5372 5367 5362 5358 5355 5351 5348 5345 5343 5341 5339 5338 5336 5335 5333 5332 5330 5329 5327 5326 5325 5324 5323 5322 5321 5320 5319 5318 5317 5315 5314 5313 5312 5311 5310 5310 5309 5308 5308
5519 5515 5510 5505 5501 5496 5491 5486 5481 5475 5470 5465 5460 5456 5451 5446 5441 5437 5432 5427 5422 5418 5413 5408 5403 5399 5394 5389 5384 5379 5374 5369 5364 5360 5356 5352 5349 5346 5343 5341 5339 5337 5336 5335 5333 5331 5329 5328 5326 5325 5324 5323 5321 5320 5320 5319 5318 5317 5316 5315 5314 5313 5311 5310 5310 5309 5308 5308 5307
5519 5515 5510 5505 5501 5496 5491 5486 5481 5476 5471 5466 5461 5456 5452 5447 5443 5438 5433 5429 5424 5419 5414 5409 5405 5400 5395 5390 5386 5381 5376 5371 5367 5362 5358 5354 5350 5347 5344 5341 5339 5337 5335 5335 5334 5331 5328 5327 5325 5324 5323 5321 5320 5319 5318 5317 5316 5315 5314 5314 5313 5311 5310 5310 5309 5308 5307 5307 5306
5519 5514 5510 5506 5501 5496 5492 5487 5482 5477 5472 5467 5462 5457 5453 5448 5444 5439 5435 5430 5425 5420 5415 5410 5406 5401 5397 5393 5388 5383 5378 5373 5369 5364 5360 5356 5352 5348 5345 5342 5339 5336 5335 5334 5334 5331 5327 5326 5324 5323 5321 5320 5319 5318 5317 5316 5315 5314 5313 5312 5311 5310 5310 5309 5308 5307 5306 5306 5305
5519 5515 5510 5505 5501 5497 5492 5487 5482 5477 5473 5468 5463 5458 5454 5449 5445 5440 5435 5431 5426 5422 5417 5412 5408 5403 5399 5395 5390 5385 5380 5375 5371 5366 5362 5358 5354 5350 5346 5343 5340 5337 5335 5333 5334 5332 5328 5325 5323 5322 5320 5319 5318 5317 5316 5315 5314 5313 5312 5311 5310 5309 5308 5307 5307 5306 5305 5305 5304
5519 5515 5510 5506 5501 5497 5492 5488 5483 5478 5474 5469 5464 5460 5455 5450 5446 5441 5437 5432 5428 5423 5418 5414 5410 5405 5400 5396 5391 5387 5382 5377 5373 5368 5364 5360 5355 5352 5348 5344 5341 5338 5335 5333 5332 5331 5329 5325 5323 5321 5320 5318 5317 5316 5315 5314 5313 5312 5311 5310 5309 5308 5307 5306 5305 5305 5304 5304 5303
5519 5515 5510 5506 5502 5497 5493 5488 5484 5479 5475 5470 5465 5460 5456 5451 5447 5442 5438 5433 5429 5425 5420 5416 5411 5406 5401 5397 5393 5388 5384 5379 5375 5370 5365 5361 5357 5353 5350 5346 5343 5340 5337 5334 5331 5331 5330 5326 5323 5321 5320 5318 5316 5315 5314 5313 5312 5310 5310 5309 5308 5307 5306 5305 5305 5304 5303 5303 5302
5520 5515 5511 5506 5502 5498 5493 5489 5485 5480 5475 5471 5466 5461 5457 5452 5448 5444 5439 5435 5430 5426 5422 5417 5412 5408 5403 5399 5394 5390 5385 5381 5377 5372 5368 5363 5359 5355 5351 5348 5344 5341 5338 5335 5332 5331 5329 5326 5323 5321 5319 5318 5316 5315 5313 5312 5310 5310 5308 5307 5307 5306 5305 5304 5304 5303 5302 5302 5301
5520 5516 5511 5507 5502 5498 5494 5490 5485 5481 5476 5472 5467 5463 5458 5454 5449 5445 5441 5437 5432 5428 5424 5419 5415 5410 5405 5401 5396 5392 5387 5383 5379 5375 5370 5365 5361 5357 5353 5349 5345 5342 5339 5336 5333 5331 5329 5327 5324 5321 5319 5317 5315 5314 5312 5311 5310 5308 5307 5306 5305 5305 5304 5303 5302 5302 5301 5301 5300
5520 5516 5512 5507 5503 5499 5494 5490 5486 5481 5477 5473 5468 5464 5459 5455 5451 5447 5442 5438 5434 5429 5425 5421 5416 5412 5408 5403 5399 5394 5390 5385 5381 5377 5372 5368 5363 5359 5354 5350 5346 5343 5340 5337 5334 5332 5330 5327 5325 5322 5319 5317 5315 5313 5312 5310 5309 5307 5306 5305 5304 5303 5302 5302 5301 5300 5300 5300 5299
5521 5517 5512 5508 5504 5499 5495 5491 5486 5482 5478 5473 5469 5465 5460 5456 5452 5447 5443 5439 5435 5431 5427 5423 5419 5414 5410 5405 5401 5396 5392 5388 5383 5379 5375 5370 5366 5361 5356 5352 5348 5344 5341 5338 5335 5332 5330 5328 5325 5323 5320 5317 5315 5313 5312 5310 5308 5307 5306 5305 5303 5302 5301 5300 5300 5299 5299 5298 5298
5521 5517 5513 5509 5505 5500 5496 5491 5487 5483 5479 5474 5470 5466 5462 5457 5453 5449 5445 5440 5436 5432 5428 5424 5420 5416 5412 5407 5403 5398 5394 5390 5385 5381 5377 5373 5368 5364 5359 5355 5350 5346 5342 5339 5336 5333 5330 5328 5326 5323 5320 5318 5316 5314 5312 5310 5308 5307 5305 5304 5303 5302 5300 5300 5299 5298 5298 5297 5297
5522 5518 5514 5510 5505 5501 5497 5492 5488 5484 5480 5475 5471 5467 5463 5459 5455 5450 5446 5442 5438 5434 5430 5425 5421 5417 5413 5409 5404 5400 5396 5391 5387 5383 5379 5375 5370 5366 5361 5357 5352 5348 5344 5340 5337 5334 5331 5329 5327 5324 5321 5319 5317 5315 5312 5310 5309 5307 5305 5304 5302 5301 5300 5299 5298 5297 5296 5296 5296
5523 5519 5515 5511 5506 5502 5498 5493 5489 5485 5480 5476 5472 5468 5464 5460 5456 5452 5448 5444 5439 5435 5431 5427 5423 5419 5414 5410 5406 5402 5398 5394 5389 5385 5380 5376 5372 5368 5364 5359 5355 5350 5346 5342 5339 5335 5332 5330 5327 5325 5322 5320 5317 5315 5313 5311 5309 5307 5305 5304 5302 5301 5300 5299 5297 5296 5296 5295 5295
5523 5520 5515 5511 5507 5503 5499 5495 5490 5486 5481 5477 5474 5470 5465 5461 5457 5453 5449 5445 5441 5437 5433 5429 5425 5420 5416 5412 5408 5404 5400 5395 5391 5386 5382 5378 5374 5370 5365 5361 5357 5353 5349 5345 5341 5338 5335 5332 5328 5326 5324 5320 5318 5315 5313 5311 5310 5307 5305 5304 5302 5301 5300 5298 5297 5296 5295 5295 5294
5524 5520 5516 5512 5508 5504 5500 5495 5491 5487 5483 5479 5475 5470 5466 5462 5459 5455 5450 5446 5442 5438 5434 5430 5426 5422 5418 5414 5410 5405 5401 5397 5393 5388 5384 5380 5375 5372 5368 5364 5360 5356 5352 5348 5345 5341 5337 5334 5330 5328 5326 5322 5319 5316 5314 5312 5310 5308 5306 5304 5302 5301 5300 5298 5297 5296 5295 5294 5294
5524 5520 5516 5513 5509 5505 5500 5496 5492 5488 5484 5480 5475 5471 5467 5464 5460 5456 5452 5448 5444 5440 5435 5431 5427 5423 5420 5415 5411 5407 5403 5399 5394 5390 5386 5382 5378 5374 5370 5367 5363 5359 5355 5352 5348 5344 5340 5336 5332 5330 5328 5324 5320 5317 5315 5313 5310 5309 5307 5305 5303 5301 5299 5298 5297 5295 5295 5294 5293
5524 5520 5516 5513 5509 5505 5501 5497 5493 5489 5485 5480 5476 5473 5469 5465 5461 5457 5453 5449 5445 5440 5437 5433 5429 5425 5420 5417 5413 5409 5405 5400 5396 5392 5388 5384 5380 5377 5373 5370 5366 5362 5359 5355 5351 5348 5344 5340 5335 5333 5330 5326 5322 5319 5316 5314 5312 5310 5308 5305 5303 5301 5300 5298 5297 5295 5295 5294 5293
5524 5520 5516 5512 5509 5505 5501 5497 5493 5489 5485 5481 5478 5474 5470 5466 5462 5458 5454 5450 5446 5442 5438 5434 5430 5425 5422 5418 5414 5410 5406 5402 5398 5394 5390 5386 5383 5379 5376 5372 5368 5365 5361 5358 5354 5350 5347 5343 5339 5335 5332 5328 5324 5320 5318 5315 5313 5311 5309 5307 5305 5302 5300 5299 5297 5296 5295 5294 5293